StationID,Date,MaxTemp,MinTemp,Precipitation,Snowfall,SnowDepth
"USC00509793","1996-12-01",,,13.00,10.00,279.00
"USC00509793","1996-12-02",,,0.00,0.00,279.00
"USC00509793","1996-12-03",,,0.00,0.00,279.00
"USC00509793","1996-12-04",,,53.00,102.00,330.00
"USC00509793","1996-12-05",,,25.00,28.00,356.00
"USC00509793","1996-12-06",,,5.00,5.00,356.00
"USC00509793","1996-12-07",,,0.00,0.00,305.00
"USC00509793","1996-12-08",,,0.00,0.00,254.00
"USC00509793","1996-12-09",,,0.00,0.00,254.00
"USC00509793","1996-12-10",,,0.00,0.00,254.00
"USC00509793","1996-12-11",,,0.00,0.00,254.00
"USC00509793","1996-12-12",,,0.00,0.00,254.00
"USC00509793","1996-12-13",,,0.00,0.00,254.00
"USC00509793","1996-12-14",,,0.00,0.00,254.00
"USC00509793","1996-12-15",,,0.00,0.00,254.00
"USC00509793","1996-12-16",,,0.00,0.00,254.00
"USC00509793","1996-12-17",,,0.00,0.00,254.00
"USC00509793","1996-12-18",,,0.00,0.00,254.00
"USC00509793","1996-12-19",,,33.00,51.00,279.00
"USC00509793","1996-12-20",,,15.00,15.00,305.00
"USC00509793","1996-12-21",,,0.00,0.00,305.00
"USC00509793","1996-12-22",,,0.00,0.00,305.00
"USC00509793","1996-12-23",,,0.00,0.00,279.00
"USC00509793","1996-12-24",,,0.00,0.00,279.00
"USC00509793","1996-12-25",,,0.00,0.00,279.00
"USC00509793","1996-12-26",,,0.00,0.00,279.00
"USC00509793","1996-12-27",,,0.00,0.00,279.00
"USC00509793","1996-12-28",,,0.00,0.00,254.00
"USC00509793","1996-12-29",,,0.00,0.00,254.00
"USC00509793","1996-12-30",,,0.00,0.00,254.00
"USC00509793","1996-12-31",,,0.00,0.00,254.00
"USC00509793","1997-01-01",,,0.00,0.00,254.00
"USC00509793","1997-01-02",,,0.00,0.00,254.00
"USC00509793","1997-01-03",,,0.00,0.00,254.00
"USC00509793","1997-01-04",,,0.00,0.00,254.00
"USC00509793","1997-01-05",,,30.00,25.00,279.00
"USC00509793","1997-01-06",,,15.00,13.00,279.00
"USC00509793","1997-01-07",,,0.00,0.00,279.00
"USC00509793","1997-01-08",,,0.00,0.00,279.00
"USC00509793","1997-01-09",,,0.00,0.00,279.00
"USC00509793","1997-01-10",,,0.00,0.00,279.00
"USC00509793","1997-01-11",,,0.00,0.00,279.00
"USC00509793","1997-01-12",,,0.00,0.00,279.00
"USC00509793","1997-01-13",,,0.00,0.00,279.00
"USC00509793","1997-01-14",,,0.00,0.00,279.00
"USC00509793","1997-01-15",,,0.00,0.00,279.00
"USC00509793","1997-01-16",,,0.00,0.00,279.00
"USC00509793","1997-01-17",,,5.00,8.00,279.00
"USC00509793","1997-01-18",,,0.00,0.00,279.00
"USC00509793","1997-01-19",,,8.00,15.00,279.00
"USC00509793","1997-01-20",,,20.00,23.00,330.00
"USC00509793","1997-01-21",,,0.00,0.00,330.00
"USC00509793","1997-01-22",,,0.00,0.00,330.00
"USC00509793","1997-01-23",,,3.00,5.00,330.00
"USC00509793","1997-01-24",,,0.00,0.00,330.00
"USC00509793","1997-01-25",,,0.00,0.00,330.00
"USC00509793","1997-01-26",,,0.00,0.00,330.00
"USC00509793","1997-01-27",,,0.00,0.00,305.00
"USC00509793","1997-01-28",,,0.00,0.00,305.00
"USC00509793","1997-01-29",,,0.00,0.00,305.00
"USC00509793","1997-01-30",,,0.00,0.00,305.00
"USC00509793","1997-01-31",,,0.00,0.00,305.00
"USC00509793","1997-02-01",,,0.00,10.00,305.00
"USC00509793","1997-02-02",,,0.00,0.00,305.00
"USC00509793","1997-02-03",,,0.00,0.00,279.00
"USC00509793","1997-02-04",,,0.00,0.00,279.00
"USC00509793","1997-02-05",,,0.00,0.00,254.00
"USC00509793","1997-02-06",,,0.00,0.00,254.00
"USC00509793","1997-02-07",,,0.00,0.00,254.00
"USC00509793","1997-02-08",,,0.00,0.00,254.00
"USC00509793","1997-02-09",,,0.00,0.00,254.00
"USC00509793","1997-02-10",,,0.00,0.00,229.00
"USC00509793","1997-02-11",,,0.00,0.00,229.00
"USC00509793","1997-02-12",,,0.00,0.00,229.00
"USC00509793","1997-02-13",,,0.00,0.00,229.00
"USC00509793","1997-02-14",,,0.00,0.00,229.00
"USC00509793","1997-02-15",,,0.00,0.00,229.00
"USC00509793","1997-02-16",,,0.00,0.00,229.00
"USC00509793","1997-02-17",,,0.00,0.00,229.00
"USC00509793","1997-02-18",,,0.00,0.00,229.00
"USC00509793","1997-02-19",,,0.00,0.00,229.00
"USC00509793","1997-02-20",,,0.00,0.00,229.00
"USC00509793","1997-02-21",,,0.00,0.00,229.00
"USC00509793","1997-02-22",,,0.00,0.00,203.00
"USC00509793","1997-02-23",,,0.00,0.00,152.00
"USC00509793","1997-02-24",,,94.00,104.00,254.00
"USC00509793","1997-02-25",,,0.00,0.00,229.00
"USC00509793","1997-02-26",,,0.00,0.00,229.00
"USC00509793","1997-02-27",,,15.00,20.00,229.00
"USC00509793","1997-02-28",,,8.00,20.00,254.00
"USC00509793","1997-03-01",,,0.00,0.00,254.00
"USC00509793","1997-03-02",,,0.00,0.00,254.00
"USC00509793","1997-03-03",,,0.00,0.00,254.00
"USC00509793","1997-03-04",,,0.00,0.00,254.00
"USC00509793","1997-03-05",,,0.00,0.00,254.00
"USC00509793","1997-03-06",,,0.00,0.00,254.00
"USC00509793","1997-03-07",,,3.00,5.00,254.00
"USC00509793","1997-03-08",,,0.00,0.00,254.00
"USC00509793","1997-03-09",,,3.00,10.00,254.00
"USC00509793","1997-03-10",,,0.00,0.00,254.00
"USC00509793","1997-03-11",,,0.00,0.00,254.00
"USC00509793","1997-03-12",,,0.00,0.00,254.00
"USC00509793","1997-03-13",,,0.00,0.00,254.00
"USC00509793","1997-03-14",,,0.00,0.00,254.00
"USC00509793","1997-03-15",,,10.00,20.00,279.00
"USC00509793","1997-03-16",,,0.00,0.00,279.00
"USC00509793","1997-03-17",,,0.00,0.00,279.00
"USC00509793","1997-03-18",,,0.00,0.00,279.00
"USC00509793","1997-03-19",,,0.00,0.00,279.00
"USC00509793","1997-03-20",,,0.00,0.00,279.00
"USC00509793","1997-03-21",,,0.00,0.00,254.00
"USC00509793","1997-03-22",,,0.00,0.00,254.00
"USC00509793","1997-03-23",,,13.00,10.00,254.00
"USC00509793","1997-03-24",,,0.00,0.00,254.00
"USC00509793","1997-03-25",,,0.00,0.00,254.00
"USC00509793","1997-03-26",,,0.00,0.00,254.00
"USC00509793","1997-03-27",,,0.00,0.00,254.00
"USC00509793","1997-03-28",,,0.00,0.00,254.00
"USC00509793","1997-03-29",,,0.00,0.00,254.00
"USC00509793","1997-03-30",,,0.00,0.00,254.00
"USC00509793","1997-03-31",,,0.00,0.00,254.00
"USC00509793","1997-04-01",,,0.00,0.00,229.00
"USC00509793","1997-04-02",,,0.00,0.00,229.00
"USC00509793","1997-04-03",,,0.00,0.00,229.00
"USC00509793","1997-04-04",,,0.00,0.00,229.00
"USC00509793","1997-04-05",,,0.00,0.00,203.00
"USC00509793","1997-04-06",,,0.00,0.00,152.00
"USC00509793","1997-04-07",,,0.00,0.00,76.00
"USC00509793","1997-04-08",,,0.00,0.00,51.00
"USC00509793","1997-04-09",,,0.00,0.00,51.00
"USC00509793","1997-04-10",,,0.00,0.00,25.00
"USC00509793","1997-04-11",,,0.00,0.00,25.00
"USC00509793","1997-04-12",,,0.00,0.00,0.00
"USC00509793","1997-04-13",,,0.00,0.00,0.00
"USC00509793","1997-04-14",,,0.00,0.00,0.00
"USC00509793","1997-04-15",,,0.00,0.00,0.00
"USC00509793","1997-04-16",,,0.00,0.00,0.00
"USC00509793","1997-04-17",,,0.00,0.00,0.00
"USC00509793","1997-04-18",,,0.00,0.00,0.00
"USC00509793","1997-04-19",,,0.00,0.00,0.00
"USC00509793","1997-04-20",,,0.00,0.00,0.00
"USC00509793","1997-04-21",,,0.00,0.00,0.00
"USC00509793","1997-04-22",,,0.00,0.00,0.00
"USC00509793","1997-04-23",,,0.00,0.00,0.00
"USC00509793","1997-04-24",,,0.00,0.00,0.00
"USC00509793","1997-04-25",,,0.00,0.00,0.00
"USC00509793","1997-04-26",,,0.00,0.00,0.00
"USC00509793","1997-04-27",,,0.00,0.00,0.00
"USC00509793","1997-04-28",,,0.00,0.00,0.00
"USC00509793","1997-04-29",,,0.00,0.00,0.00
"USC00509793","1997-04-30",,,3.00,0.00,0.00
"USC00509793","1997-05-01",,,13.00,0.00,0.00
"USC00509793","1997-05-02",,,0.00,0.00,0.00
"USC00509793","1997-05-03",,,0.00,0.00,0.00
"USC00509793","1997-05-04",,,25.00,0.00,0.00
"USC00509793","1997-05-05",,,18.00,0.00,0.00
"USC00509793","1997-05-06",,,0.00,0.00,0.00
"USC00509793","1997-05-07",,,0.00,0.00,0.00
"USC00509793","1997-05-08",,,0.00,0.00,0.00
"USC00509793","1997-05-09",,,0.00,0.00,0.00
"USC00509793","1997-05-10",,,0.00,0.00,0.00
"USC00509793","1997-05-11",,,0.00,0.00,0.00
"USC00509793","1997-05-12",,,0.00,0.00,0.00
"USC00509793","1997-05-13",,,8.00,0.00,0.00
"USC00509793","1997-05-14",,,5.00,0.00,0.00
"USC00509793","1997-05-15",,,3.00,0.00,0.00
"USC00509793","1997-05-16",,,0.00,0.00,0.00
"USC00509793","1997-05-17",,,0.00,0.00,0.00
"USC00509793","1997-05-18",,,5.00,0.00,0.00
"USC00509793","1997-05-19",,,0.00,0.00,0.00
"USC00509793","1997-05-20",,,0.00,0.00,0.00
"USC00509793","1997-05-21",,,3.00,0.00,0.00
"USC00509793","1997-05-22",,,18.00,0.00,0.00
"USC00509793","1997-05-23",,,0.00,0.00,0.00
"USC00509793","1997-05-24",,,0.00,0.00,0.00
"USC00509793","1997-05-25",,,0.00,0.00,0.00
"USC00509793","1997-05-26",,,0.00,0.00,0.00
"USC00509793","1997-05-27",,,0.00,0.00,0.00
"USC00509793","1997-05-28",,,0.00,0.00,0.00
"USC00509793","1997-05-29",,,0.00,0.00,0.00
"USC00509793","1997-05-30",,,142.00,0.00,0.00
"USC00509793","1997-05-31",,,0.00,0.00,0.00
"USC00509793","1997-06-01",,,0.00,0.00,0.00
"USC00509793","1997-06-02",,,0.00,0.00,0.00
"USC00509793","1997-06-03",,,0.00,0.00,0.00
"USC00509793","1997-06-04",,,0.00,0.00,0.00
"USC00509793","1997-06-05",,,0.00,0.00,0.00
"USC00509793","1997-06-06",,,0.00,0.00,0.00
"USC00509793","1997-06-07",,,15.00,0.00,0.00
"USC00509793","1997-06-08",,,127.00,0.00,0.00
"USC00509793","1997-06-09",,,58.00,0.00,0.00
"USC00509793","1997-06-10",,,5.00,0.00,0.00
"USC00509793","1997-06-11",,,0.00,0.00,0.00
"USC00509793","1997-06-12",,,0.00,0.00,0.00
"USC00509793","1997-06-13",,,3.00,0.00,0.00
"USC00509793","1997-06-14",,,0.00,0.00,0.00
"USC00509793","1997-06-15",,,0.00,0.00,0.00
"USC00509793","1997-06-16",,,30.00,0.00,0.00
"USC00509793","1997-06-17",,,0.00,0.00,0.00
"USC00509793","1997-06-18",,,0.00,0.00,0.00
"USC00509793","1997-06-19",,,3.00,0.00,0.00
"USC00509793","1997-06-20",,,122.00,0.00,0.00
"USC00509793","1997-06-21",,,0.00,0.00,0.00
"USC00509793","1997-06-22",,,0.00,0.00,0.00
"USC00509793","1997-06-23",,,0.00,0.00,0.00
"USC00509793","1997-06-24",,,5.00,0.00,0.00
"USC00509793","1997-06-25",,,0.00,0.00,0.00
"USC00509793","1997-06-26",,,0.00,0.00,0.00
"USC00509793","1997-06-27",,,0.00,0.00,0.00
"USC00509793","1997-06-28",,,0.00,0.00,0.00
"USC00509793","1997-06-29",,,0.00,0.00,0.00
"USC00509793","1997-06-30",,,0.00,0.00,0.00
"USC00509793","1997-07-01",,,0.00,0.00,0.00
"USC00509793","1997-07-02",,,18.00,0.00,0.00
"USC00509793","1997-07-03",,,20.00,0.00,0.00
"USC00509793","1997-07-04",,,53.00,0.00,0.00
"USC00509793","1997-07-05",,,0.00,0.00,0.00
"USC00509793","1997-07-06",,,8.00,0.00,0.00
"USC00509793","1997-07-07",,,10.00,0.00,0.00
"USC00509793","1997-07-08",,,0.00,0.00,0.00
"USC00509793","1997-07-09",,,20.00,0.00,0.00
"USC00509793","1997-07-10",,,0.00,0.00,0.00
"USC00509793","1997-07-11",,,0.00,0.00,0.00
"USC00509793","1997-07-12",,,51.00,0.00,0.00
"USC00509793","1997-07-13",,,229.00,0.00,0.00
"USC00509793","1997-07-14",,,206.00,0.00,0.00
"USC00509793","1997-07-15",,,0.00,0.00,0.00
"USC00509793","1997-07-16",,,0.00,0.00,0.00
"USC00509793","1997-07-17",,,5.00,0.00,0.00
"USC00509793","1997-07-18",,,3.00,0.00,0.00
"USC00509793","1997-07-19",,,84.00,0.00,0.00
"USC00509793","1997-07-20",,,25.00,0.00,0.00
"USC00509793","1997-07-21",,,109.00,0.00,0.00
"USC00509793","1997-07-22",,,0.00,0.00,0.00
"USC00509793","1997-07-23",,,0.00,0.00,0.00
"USC00509793","1997-07-24",,,8.00,0.00,0.00
"USC00509793","1997-07-25",,,0.00,0.00,0.00
"USC00509793","1997-07-26",,,0.00,0.00,0.00
"USC00509793","1997-07-27",,,0.00,0.00,0.00
"USC00509793","1997-07-28",,,0.00,0.00,0.00
"USC00509793","1997-07-29",,,0.00,0.00,0.00
"USC00509793","1997-07-30",,,0.00,0.00,0.00
"USC00509793","1997-07-31",,,0.00,0.00,0.00
"USC00509793","1997-08-01",,,3.00,0.00,
"USC00509793","1997-08-02",,,130.00,0.00,0.00
"USC00509793","1997-08-03",,,5.00,0.00,0.00
"USC00509793","1997-08-04",,,0.00,0.00,0.00
"USC00509793","1997-08-05",,,3.00,0.00,0.00
"USC00509793","1997-08-06",,,86.00,0.00,0.00
"USC00509793","1997-08-07",,,152.00,0.00,0.00
"USC00509793","1997-08-08",,,0.00,0.00,0.00
"USC00509793","1997-08-09",,,0.00,0.00,0.00
"USC00509793","1997-08-10",,,0.00,0.00,0.00
"USC00509793","1997-08-11",,,0.00,0.00,0.00
"USC00509793","1997-08-12",,,0.00,0.00,0.00
"USC00509793","1997-08-13",,,51.00,0.00,0.00
"USC00509793","1997-08-14",,,25.00,0.00,0.00
"USC00509793","1997-08-15",,,0.00,0.00,0.00
"USC00509793","1997-08-16",,,69.00,0.00,0.00
"USC00509793","1997-08-17",,,8.00,0.00,0.00
"USC00509793","1997-08-18",,,13.00,0.00,0.00
"USC00509793","1997-08-19",,,3.00,0.00,0.00
"USC00509793","1997-08-20",,,0.00,0.00,0.00
"USC00509793","1997-08-21",,,0.00,0.00,0.00
"USC00509793","1997-08-22",,,0.00,0.00,0.00
"USC00509793","1997-08-23",,,0.00,0.00,0.00
"USC00509793","1997-08-24",,,0.00,0.00,0.00
"USC00509793","1997-08-25",,,0.00,0.00,0.00
"USC00509793","1997-08-26",,,0.00,0.00,0.00
"USC00509793","1997-08-27",,,10.00,0.00,0.00
"USC00509793","1997-08-28",,,0.00,0.00,0.00
"USC00509793","1997-08-29",,,5.00,0.00,0.00
"USC00509793","1997-08-30",,,0.00,0.00,0.00
"USC00509793","1997-08-31",,,0.00,0.00,0.00
"USC00509793","1997-09-01",,,8.00,0.00,0.00
"USC00509793","1997-09-02",,,53.00,0.00,0.00
"USC00509793","1997-09-03",,,5.00,0.00,0.00
"USC00509793","1997-09-04",,,0.00,0.00,0.00
"USC00509793","1997-09-05",,,0.00,0.00,0.00
"USC00509793","1997-09-06",,,0.00,0.00,0.00
"USC00509793","1997-09-07",,,0.00,0.00,0.00
"USC00509793","1997-09-08",,,0.00,0.00,0.00
"USC00509793","1997-09-09",,,0.00,0.00,0.00
"USC00509793","1997-09-10",,,10.00,0.00,0.00
"USC00509793","1997-09-11",,,15.00,0.00,0.00
"USC00509793","1997-09-12",,,3.00,0.00,0.00
"USC00509793","1997-09-13",,,71.00,0.00,0.00
"USC00509793","1997-09-14",,,0.00,0.00,0.00
"USC00509793","1997-09-15",,,0.00,0.00,0.00
"USC00509793","1997-09-16",,,0.00,0.00,0.00
"USC00509793","1997-09-17",,,0.00,0.00,0.00
"USC00509793","1997-09-18",,,0.00,0.00,0.00
"USC00509793","1997-09-19",,,3.00,0.00,0.00
"USC00509793","1997-09-20",,,0.00,0.00,0.00
"USC00509793","1997-09-21",,,0.00,0.00,0.00
"USC00509793","1997-09-22",,,0.00,0.00,0.00
"USC00509793","1997-09-23",,,0.00,0.00,0.00
"USC00509793","1997-09-24",,,0.00,0.00,0.00
"USC00509793","1997-09-25",,,0.00,0.00,0.00
"USC00509793","1997-09-26",,,0.00,0.00,0.00
"USC00509793","1997-09-27",,,0.00,0.00,0.00
"USC00509793","1997-09-28",,,15.00,0.00,0.00
"USC00509793","1997-09-29",,,0.00,0.00,0.00
"USC00509793","1997-09-30",,,0.00,0.00,0.00
"USC00509793","1997-10-01",,,0.00,0.00,0.00
"USC00509793","1997-10-02",,,0.00,0.00,0.00
"USC00509793","1997-10-03",,,0.00,0.00,0.00
"USC00509793","1997-10-04",,,8.00,8.00,0.00
"USC00509793","1997-10-05",,,36.00,13.00,25.00
"USC00509793","1997-10-06",,,15.00,51.00,25.00
"USC00509793","1997-10-07",,,0.00,0.00,25.00
"USC00509793","1997-10-08",,,13.00,20.00,51.00
"USC00509793","1997-10-09",,,86.00,114.00,178.00
"USC00509793","1997-10-10",,,36.00,71.00,229.00
"USC00509793","1997-10-11",,,0.00,0.00,203.00
"USC00509793","1997-10-12",,,0.00,0.00,203.00
"USC00509793","1997-10-13",,,0.00,0.00,178.00
"USC00509793","1997-10-14",,,0.00,0.00,178.00
"USC00509793","1997-10-15",,,0.00,0.00,152.00
"USC00509793","1997-10-16",,,0.00,5.00,152.00
"USC00509793","1997-10-17",,,25.00,30.00,178.00
"USC00509793","1997-10-18",,,0.00,0.00,178.00
"USC00509793","1997-10-19",,,13.00,10.00,152.00
"USC00509793","1997-10-20",,,0.00,0.00,152.00
"USC00509793","1997-10-21",,,0.00,0.00,152.00
"USC00509793","1997-10-22",,,8.00,13.00,178.00
"USC00509793","1997-10-23",,,0.00,3.00,178.00
"USC00509793","1997-10-24",,,3.00,5.00,178.00
"USC00509793","1997-10-25",,,10.00,20.00,203.00
"USC00509793","1997-10-26",,,229.00,38.00,254.00
"USC00509793","1997-10-27",,,0.00,0.00,229.00
"USC00509793","1997-10-28",,,0.00,0.00,229.00
"USC00509793","1997-10-29",,,0.00,0.00,229.00
"USC00509793","1997-10-30",,,5.00,15.00,203.00
"USC00509793","1997-10-31",,,0.00,0.00,203.00
"USC00509793","1997-11-01",,,23.00,25.00,229.00
"USC00509793","1997-11-02",,,0.00,0.00,229.00
"USC00509793","1997-11-03",,,0.00,0.00,229.00
"USC00509793","1997-11-04",,,0.00,0.00,229.00
"USC00509793","1997-11-05",,,0.00,3.00,229.00
"USC00509793","1997-11-06",,,0.00,0.00,229.00
"USC00509793","1997-11-07",,,0.00,0.00,203.00
"USC00509793","1997-11-08",,,0.00,0.00,178.00
"USC00509793","1997-11-09",,,0.00,0.00,178.00
"USC00509793","1997-11-10",,,0.00,0.00,152.00
"USC00509793","1997-11-11",,,0.00,0.00,152.00
"USC00509793","1997-11-12",,,0.00,0.00,152.00
"USC00509793","1997-11-13",,,0.00,3.00,152.00
"USC00509793","1997-11-14",,,10.00,23.00,178.00
"USC00509793","1997-11-15",,,0.00,0.00,178.00
"USC00509793","1997-11-16",,,0.00,0.00,178.00
"USC00509793","1997-11-17",,,0.00,0.00,178.00
"USC00509793","1997-11-18",,,0.00,3.00,178.00
"USC00509793","1997-11-19",,,23.00,23.00,203.00
"USC00509793","1997-11-20",,,0.00,0.00,203.00
"USC00509793","1997-11-21",,,0.00,0.00,203.00
"USC00509793","1997-11-22",,,36.00,33.00,254.00
"USC00509793","1997-11-23",,,15.00,51.00,305.00
"USC00509793","1997-11-24",,,8.00,18.00,279.00
"USC00509793","1997-11-25",,,0.00,0.00,279.00
"USC00509793","1997-11-26",,,0.00,0.00,279.00
"USC00509793","1997-11-27",,,0.00,3.00,254.00
"USC00509793","1997-11-28",,,0.00,0.00,254.00
"USC00509793","1997-11-29",,,0.00,0.00,254.00
"USC00509793","1997-11-30",,,0.00,0.00,254.00
"USC00509793","1997-12-01",,,13.00,10.00,254.00
"USC00509793","1997-12-02",,,3.00,8.00,279.00
"USC00509793","1997-12-03",,,0.00,0.00,279.00
"USC00509793","1997-12-04",,,0.00,0.00,254.00
"USC00509793","1997-12-05",,,0.00,0.00,254.00
"USC00509793","1997-12-06",,,0.00,0.00,254.00
"USC00509793","1997-12-07",,,0.00,0.00,254.00
"USC00509793","1997-12-08",,,0.00,0.00,254.00
"USC00509793","1997-12-09",,,0.00,0.00,254.00
"USC00509793","1997-12-10",,,0.00,0.00,254.00
"USC00509793","1997-12-11",,,0.00,0.00,254.00
"USC00509793","1997-12-12",,,0.00,3.00,254.00
"USC00509793","1997-12-13",,,15.00,28.00,279.00
"USC00509793","1997-12-14",,,3.00,5.00,279.00
"USC00509793","1997-12-15",,,0.00,3.00,279.00
"USC00509793","1997-12-16",,,0.00,0.00,279.00
"USC00509793","1997-12-17",,,0.00,0.00,279.00
"USC00509793","1997-12-18",,,0.00,0.00,279.00
"USC00509793","1997-12-19",,,0.00,0.00,279.00
"USC00509793","1997-12-20",,,15.00,18.00,305.00
"USC00509793","1997-12-21",,,0.00,0.00,305.00
"USC00509793","1997-12-22",,,0.00,0.00,305.00
"USC00509793","1997-12-23",,,0.00,0.00,305.00
"USC00509793","1997-12-24",,,0.00,0.00,305.00
"USC00509793","1997-12-25",,,28.00,38.00,356.00
"USC00509793","1997-12-26",,,41.00,64.00,406.00
"USC00509793","1997-12-27",,,0.00,0.00,406.00
"USC00509793","1997-12-28",,,0.00,0.00,406.00
"USC00509793","1997-12-29",,,0.00,3.00,406.00
"USC00509793","1997-12-30",,,0.00,0.00,406.00
"USC00509793","1997-12-31",,,0.00,0.00,406.00
"USC00509793","1998-01-01",,,3.00,5.00,406.00
"USC00509793","1998-01-02",,,5.00,10.00,406.00
"USC00509793","1998-01-03",,,0.00,0.00,406.00
"USC00509793","1998-01-04",,,0.00,0.00,406.00
"USC00509793","1998-01-05",,,0.00,0.00,406.00
"USC00509793","1998-01-06",,,0.00,0.00,406.00
"USC00509793","1998-01-07",,,0.00,0.00,406.00
"USC00509793","1998-01-08",,,0.00,0.00,406.00
"USC00509793","1998-01-09",,,0.00,0.00,406.00
"USC00509793","1998-01-10",,,0.00,0.00,406.00
"USC00509793","1998-01-11",,,0.00,0.00,406.00
"USC00509793","1998-01-12",,,3.00,5.00,406.00
"USC00509793","1998-01-13",,,0.00,0.00,406.00
"USC00509793","1998-01-14",,,0.00,0.00,406.00
"USC00509793","1998-01-15",,,0.00,0.00,406.00
"USC00509793","1998-01-16",,,0.00,0.00,406.00
"USC00509793","1998-01-17",,,0.00,0.00,406.00
"USC00509793","1998-01-18",,,0.00,0.00,406.00
"USC00509793","1998-01-19",,,0.00,0.00,406.00
"USC00509793","1998-01-20",,,0.00,0.00,406.00
"USC00509793","1998-01-21",,,0.00,0.00,406.00
"USC00509793","1998-01-22",,,0.00,0.00,406.00
"USC00509793","1998-01-23",,,0.00,0.00,406.00
"USC00509793","1998-01-24",,,0.00,0.00,406.00
"USC00509793","1998-01-25",,,0.00,0.00,406.00
"USC00509793","1998-01-26",,,0.00,0.00,406.00
"USC00509793","1998-01-27",,,0.00,0.00,406.00
"USC00509793","1998-01-28",,,0.00,0.00,406.00
"USC00509793","1998-01-29",,,0.00,0.00,406.00
"USC00509793","1998-01-30",,,0.00,0.00,406.00
"USC00509793","1998-01-31",,,0.00,0.00,381.00
"USC00509793","1998-02-01",,,0.00,0.00,381.00
"USC00509793","1998-02-02",,,0.00,0.00,381.00
"USC00509793","1998-02-03",,,0.00,0.00,381.00
"USC00509793","1998-02-04",,,0.00,0.00,381.00
"USC00509793","1998-02-05",,,0.00,0.00,381.00
"USC00509793","1998-02-06",,,0.00,0.00,381.00
"USC00509793","1998-02-07",,,0.00,0.00,381.00
"USC00509793","1998-02-08",,,0.00,0.00,381.00
"USC00509793","1998-02-09",,,0.00,0.00,381.00
"USC00509793","1998-02-10",,,0.00,0.00,381.00
"USC00509793","1998-02-11",,,0.00,0.00,381.00
"USC00509793","1998-02-12",,,0.00,0.00,381.00
"USC00509793","1998-02-13",,,15.00,46.00,432.00
"USC00509793","1998-02-14",,,0.00,3.00,432.00
"USC00509793","1998-02-15",,,0.00,0.00,432.00
"USC00509793","1998-02-16",,,10.00,33.00,457.00
"USC00509793","1998-02-17",,,0.00,0.00,457.00
"USC00509793","1998-02-18",,,0.00,0.00,457.00
"USC00509793","1998-02-19",,,0.00,0.00,457.00
"USC00509793","1998-02-20",,,0.00,0.00,457.00
"USC00509793","1998-02-21",,,0.00,0.00,432.00
"USC00509793","1998-02-22",,,0.00,0.00,432.00
"USC00509793","1998-02-23",,,0.00,0.00,432.00
"USC00509793","1998-02-24",,,0.00,0.00,432.00
"USC00509793","1998-02-25",,,0.00,0.00,432.00
"USC00509793","1998-02-26",,,0.00,0.00,406.00
"USC00509793","1998-02-27",,,0.00,0.00,406.00
"USC00509793","1998-02-28",,,5.00,41.00,457.00
"USC00509793","1998-03-01",,,0.00,0.00,457.00
"USC00509793","1998-03-02",,,0.00,0.00,457.00
"USC00509793","1998-03-03",,,0.00,0.00,457.00
"USC00509793","1998-03-04",,,0.00,0.00,432.00
"USC00509793","1998-03-05",,,0.00,0.00,432.00
"USC00509793","1998-03-06",,,0.00,0.00,432.00
"USC00509793","1998-03-07",,,0.00,0.00,406.00
"USC00509793","1998-03-08",,,0.00,0.00,381.00
"USC00509793","1998-03-09",,,0.00,0.00,381.00
"USC00509793","1998-03-10",,,0.00,0.00,381.00
"USC00509793","1998-03-11",,,0.00,0.00,356.00
"USC00509793","1998-03-12",,,0.00,0.00,356.00
"USC00509793","1998-03-13",,,0.00,0.00,356.00
"USC00509793","1998-03-14",,,0.00,0.00,305.00
"USC00509793","1998-03-15",,,0.00,0.00,279.00
"USC00509793","1998-03-16",,,0.00,0.00,254.00
"USC00509793","1998-03-17",,,0.00,0.00,254.00
"USC00509793","1998-03-18",,,0.00,0.00,229.00
"USC00509793","1998-03-19",,,0.00,0.00,203.00
"USC00509793","1998-03-20",,,0.00,0.00,178.00
"USC00509793","1998-03-21",,,0.00,0.00,127.00
"USC00509793","1998-03-22",,,0.00,0.00,102.00
"USC00509793","1998-03-23",,,0.00,0.00,76.00
"USC00509793","1998-03-24",,,0.00,0.00,51.00
"USC00509793","1998-03-25",,,0.00,0.00,51.00
"USC00509793","1998-03-26",,,5.00,8.00,51.00
"USC00509793","1998-03-27",,,0.00,0.00,51.00
"USC00509793","1998-03-28",,,0.00,0.00,51.00
"USC00509793","1998-03-29",,,0.00,0.00,25.00
"USC00509793","1998-03-30",,,0.00,0.00,25.00
"USC00509793","1998-03-31",,,0.00,0.00,25.00
"USC00509793","1998-04-01",,,0.00,0.00,0.00
"USC00509793","1998-04-02",,,0.00,0.00,0.00
"USC00509793","1998-04-03",,,0.00,0.00,0.00
"USC00509793","1998-04-04",,,0.00,0.00,0.00
"USC00509793","1998-04-05",,,0.00,0.00,0.00
"USC00509793","1998-04-06",,,0.00,0.00,0.00
"USC00509793","1998-04-07",,,0.00,0.00,0.00
"USC00509793","1998-04-08",,,0.00,0.00,0.00
"USC00509793","1998-04-09",,,0.00,0.00,0.00
"USC00509793","1998-04-10",,,0.00,0.00,0.00
"USC00509793","1998-04-11",,,0.00,0.00,0.00
"USC00509793","1998-04-12",,,0.00,0.00,0.00
"USC00509793","1998-04-13",,,0.00,0.00,0.00
"USC00509793","1998-04-14",,,0.00,0.00,0.00
"USC00509793","1998-04-15",,,0.00,0.00,0.00
"USC00509793","1998-04-16",,,0.00,0.00,0.00
"USC00509793","1998-04-17",,,0.00,0.00,0.00
"USC00509793","1998-04-18",,,0.00,0.00,0.00
"USC00509793","1998-04-19",,,0.00,0.00,0.00
"USC00509793","1998-04-20",,,0.00,0.00,0.00
"USC00509793","1998-04-21",,,0.00,0.00,0.00
"USC00509793","1998-04-22",,,0.00,0.00,0.00
"USC00509793","1998-04-23",,,0.00,0.00,0.00
"USC00509793","1998-04-24",,,0.00,0.00,0.00
"USC00509793","1998-04-25",,,0.00,0.00,0.00
"USC00509793","1998-04-26",,,0.00,0.00,0.00
"USC00509793","1998-04-27",,,0.00,0.00,0.00
"USC00509793","1998-04-28",,,0.00,0.00,0.00
"USC00509793","1998-04-29",,,0.00,0.00,0.00